Home   Weather   Sault Ste. Marie   Past weeks

Flag for Canada Past Weather in Sault Ste. Marie, Ontario, Canada — Yesterday and Last 2 Weeks

Now
36 °F

Fog.


Feels Like: 30 °F
Forecast: 32 / 36 °F
Wind: 7 mph from South

Location: Sault Ste Marie

Current Time: Jan 19, 2017 at 12:19:13 pm

Latest Report: Jan 19, 2017 at 11:00 am


Visibility: 3 mi

Pressure: 29.99 "Hg

Humidity: 87%

Dew Point: 32 °F

Location of Sault Ste. MarieLocation

Past Weather in Sault Ste. Marie — Graph

°F

Sault Ste. Marie Temperature Yesterday

Maximum temperature yesterday: 36 °F (at 1:00 pm)
Minimum temperature yesterday: 21 °F (at 4:00 am)
Average temperature yesterday: 31 °F

High & Low Weather Summary for the Past Weeks

 TemperatureHumidityPressure
High41 °F (Jan 10, 3:00 pm)100% (Jan 10, 8:40 am)30.82 "Hg (Jan 10, 8:40 am)
Low-9 °F (Jan 6, 9:00 am)41% (Jan 7, 2:00 pm)28.99 "Hg (Jan 10, 9:00 pm)
Average19 °F78%30.06 "Hg
* Reported Jan 4 11:00 am — Jan 19 11:00 am, Sault Ste. Marie, Weather by CustomWeather, © 2017

Note: Actual official high and low records may vary slightly from our data, if they occured in-between our weather recording intervals... More about our weather records

Advertising

Sault Ste. Marie Weather History for the Previous 24 Hours

Scroll right to see more
 ConditionsComfort  
Time TempWeatherWind HumidityBarometerVisibility
11:00 am
Thu, Jan 19
36 °FFog.7 mph87%29.99 "Hg3 mi
10:00 am36 °FFog.5 mph87%29.98 "Hg3 mi
9:19 am36 °FFog.6 mph87%29.99 "Hg3 mi
9:00 am36 °FFog.7 mph87%29.99 "Hg3 mi
8:00 am36 °FFog.5 mph87%29.98 "Hg3 mi
7:00 am36 °FFog.3 mph87%29.98 "Hg6 mi
6:00 am34 °FFog.2 mph93%29.96 "Hg6 mi
5:23 am34 °FFog.3 mph93%29.96 "Hg4 mi
5:00 am34 °FFog.5 mph93%29.95 "Hg6 mi
4:06 am34 °FFog.7 mph93%29.95 "Hg3 mi
3:00 am32 °FIce fog.2 mph93%29.94 "Hg6 mi
2:00 am34 °FLow clouds.2 mph93%29.93 "Hg10 mi
1:00 am28 °FPassing clouds.2 mph93%29.93 "Hg12 mi
12:00 am32 °FPassing clouds.2 mph93%29.93 "Hg15 mi
11:00 pm
Wed, Jan 18
34 °FLow clouds.6 mph87%29.92 "Hg12 mi
10:00 pm34 °FLow clouds.3 mph87%29.92 "Hg12 mi
9:00 pm34 °FLow clouds.2 mph87%29.91 "Hg12 mi
8:00 pm34 °FLow clouds.6 mph87%29.92 "Hg12 mi
7:00 pm34 °FMostly cloudy.10 mph87%29.90 "Hg15 mi
6:00 pm34 °FMostly cloudy.8 mph87%29.89 "Hg14 mi
5:42 pm34 °FMostly cloudy.7 mph87%29.88 "Hg15 mi
5:00 pm34 °FMostly cloudy.10 mph87%29.87 "Hg15 mi
4:00 pm34 °FMostly cloudy.12 mph87%29.87 "Hg15 mi
3:36 pm36 °FMostly cloudy.13 mph81%29.87 "Hg15 mi
3:00 pm36 °FMostly cloudy.10 mph87%29.87 "Hg15 mi
2:08 pm36 °FMostly cloudy.9 mph87%29.86 "Hg12 mi
1:00 pm36 °FMostly cloudy.8 mph87%29.88 "Hg12 mi
12:00 pm34 °FMostly cloudy.8 mph93%29.92 "Hg12 mi
Weather by CustomWeather, © 2017

See weather overviewHow to use our weather pages